DW1779 Weather Reports


time (UTC)temp
F
wind
direction
speed
knots
gust
knots
rain 1hr
in
rain 24hr
in
rain mn
in
humidity
%
barometer
mb
20260510050059 67 308 1.7 10.4 0.00 0.01 0.00 65 1013.5
20260510045554 66 344 3.5 10.4 0.00 0.08 0.01 66 1013.2
20260510045053 65 346 4.3 10.4 0.00 0.08 0.01 69 1013.3
20260510044555 64 326 3.5 7.8 0.00 0.08 0.01 71 1013.1
20260510044052 63 291 0.9 2.6 0.00 0.08 0.01 77 1012.5
20260510043550 63 207 0.0 3.5 0.00 0.08 0.01 76 1012.5
20260510043058 63 198 0.0 3.5 0.00 0.08 0.01 77 1012.5
20260510042549 61 219 0.0 3.5 0.00 0.08 0.01 80 1012.4
20260510042049 60 304 0.0 3.5 0.00 0.08 0.01 85 1012.4
20260510041607 59 200 0.9 4.3 0.00 0.08 0.01 89 1012.3
20260510041053 58 192 1.7 4.3 0.00 0.08 0.01 90 1012.2
20260510040649 58 186 0.9 4.3 0.00 0.08 0.01 90 1012.3
20260510040047 58 207 0.0 0.0 0.00 0.08 0.01 92 1012.3
20260510035547 58 207 0.0 0.0 0.00 0.50 0.01 92 1012.5
20260510035046 57 207 0.0 0.0 0.00 0.50 0.01 93 1012.5
20260510034546 57 207 0.0 0.9 0.00 0.50 0.01 92 1012.4
20260510034049 57 207 0.0 1.7 0.00 0.50 0.01 92 1012.5
20260510033547 57 207 0.9 1.7 0.00 0.50 0.01 92 1012.4
20260510033046 57 207 0.9 1.7 0.00 0.50 0.01 92 1012.2
20260510032548 57 207 0.0 0.9 0.00 0.50 0.01 92 1012.3
20260510032046 57 207 0.0 0.9 0.00 0.50 0.01 92 1012.2
20260510031544 57 207 0.0 1.7 0.00 0.50 0.01 91 1012.2
20260510031045 57 207 0.0 1.7 0.00 0.50 0.01 91 1012.1
20260510030646 57 207 0.9 1.7 0.00 0.50 0.01 91 1012.0
20260510030049 58 207 0.9 1.7 0.00 0.50 0.01 91 1012.1
20260510025544 58 207 0.0 1.7 0.00 0.51 0.01 91 1012.2
20260510025041 58 207 0.0 1.7 0.00 0.51 0.01 91 1012.0
20260510024552 58 207 0.0 1.7 0.00 0.51 0.01 90 1012.0
20260510024045 58 228 0.0 0.0 0.00 0.51 0.01 90 1011.8
20260510023541 58 312 0.0 0.0 0.00 0.51 0.01 89 1011.7
20260510023041 59 312 0.0 0.0 0.00 0.51 0.01 89 1011.8
20260510022546 59 312 0.0 0.0 0.00 0.51 0.01 88 1011.6
20260510022042 59 312 0.0 0.0 0.00 0.51 0.01 87 1011.5
20260510021542 59 312 0.0 0.0 0.00 0.51 0.01 87 1011.3
20260510021040 60 312 0.0 0.0 0.00 0.51 0.01 87 1011.2
20260510020641 60 312 0.0 0.0 0.00 0.51 0.01 87 1011.1
20260510020049 60 312 0.0 0.0 0.00 0.51 0.01 86 1011.0
20260510015541 61 312 0.0 0.0 0.00 0.51 0.01 85 1010.9
20260510015042 61 312 0.0 0.0 0.00 0.51 0.01 85 1010.9
20260510014540 61 312 0.0 0.0 0.00 0.51 0.01 85 1010.9
20260510014039 62 312 0.0 0.0 0.00 0.51 0.01 85 1010.7
20260510013539 62 312 0.0 0.0 0.00 0.51 0.01 84 1010.7
20260510013046 62 312 0.0 0.0 0.00 0.51 0.01 83 1010.7
20260510012543 63 312 0.0 0.0 0.00 0.51 0.01 82 1010.7
20260510012039 63 312 0.0 0.0 0.00 0.51 0.01 81 1010.6
20260510011540 63 312 0.0 0.0 0.00 0.51 0.01 79 1010.6
20260510011038 64 312 0.0 0.0 0.00 0.51 0.01 77 1010.4
20260510010638 65 312 0.0 0.0 0.00 0.51 0.01 77 1010.3
20260510010110 65 312 0.0 0.0 0.00 0.51 0.01 75 1010.3
20260510005557 66 312 0.0 0.0 0.00 0.54 0.01 73 1010.2
20260510005056 67 312 0.0 0.0 0.00 0.54 0.01 72 1010.1
20260510004603 67 312 0.0 0.9 0.00 0.54 0.01 72 1010.1
20260510004056 68 312 0.0 0.9 0.00 0.54 0.01 70 1010.1
20260510003556 68 312 0.0 0.9 0.00 0.54 0.01 70 1010.0
20260510003057 69 312 0.0 0.9 0.00 0.54 0.01 69 1010.0
20260510002558 70 312 0.0 0.9 0.00 0.54 0.01 66 1009.9
20260510002055 71 312 0.0 0.0 0.00 0.54 0.01 63 1009.9
20260510001555 71 312 0.0 0.0 0.00 0.54 0.01 59 1010.0
20260510001057 72 312 0.0 0.9 0.00 0.54 0.01 60 1009.9
20260510000656 72 312 0.0 1.7 0.00 0.54 0.01 56 1009.9
20260510000057 73 294 0.0 2.6 0.00 0.54 0.01 57 1009.9
20260509235551 74 300 0.0 3.5 0.00 0.54 0.01 56 1009.8
20260509235051 75 303 0.9 3.5 0.00 0.54 0.01 55 1009.8
20260509234602 76 294 0.0 2.6 0.00 0.54 0.01 52 1009.8
20260509234053 78 309 0.9 3.5 0.00 0.54 0.01 44 1009.9
20260509233551 78 287 0.9 3.5 0.00 0.54 0.01 41 1009.7
20260509233050 78 300 0.9 7.8 0.00 0.54 0.01 44 1009.8
20260509232550 78 255 4.3 7.8 0.00 0.54 0.01 43 1009.8
20260509232050 78 295 1.7 6.1 0.00 0.54 0.01 43 1009.9
20260509231550 78 295 1.7 4.3 0.00 0.54 0.01 42 1009.9
20260509231049 78 328 1.7 4.3 0.00 0.54 0.01 43 1009.8
20260509230651 78 301 0.0 6.1 0.00 0.54 0.01 47 1009.8
20260509230048 78 298 0.9 6.1 0.00 0.54 0.01 47 1009.8
20260509225548 78 315 2.6 8.7 0.00 0.54 0.01 45 1009.9
20260509225047 78 286 2.6 8.7 0.00 0.54 0.01 43 1009.8
20260509224548 78 268 2.6 5.2 0.00 0.54 0.01 46 1009.7
20260509224049 78 325 1.7 6.1 0.00 0.54 0.01 41 1009.7
20260509223547 78 309 1.7 8.7 0.00 0.54 0.01 43 1009.6
20260509223049 78 286 4.3 8.7 0.00 0.54 0.01 41 1009.7
20260509222546 78 327 1.7 7.0 0.00 0.54 0.01 43 1009.7
20260509222046 78 348 2.6 7.8 0.00 0.54 0.01 42 1009.6
20260509221603 78 325 2.6 7.8 0.00 0.54 0.01 44 1009.7
20260509221046 78 271 1.7 7.0 0.00 0.54 0.01 45 1009.5
20260509220647 78 263 1.7 6.1 0.00 0.54 0.01 44 1009.6
20260509220058 79 334 1.7 6.1 0.00 0.54 0.01 42 1009.6
20260509215646 79 331 0.9 4.3 0.00 0.54 0.01 43 1009.7
20260509215044 79 263 1.7 9.6 0.00 0.54 0.01 40 1009.6
20260509214544 79 296 4.3 9.6 0.00 0.54 0.01 46 1009.6
20260509214044 79 270 2.6 5.2 0.00 0.54 0.01 46 1009.6
20260509213544 79 283 2.6 5.2 0.00 0.54 0.01 46 1009.7
20260509213044 79 284 1.7 9.6 0.00 0.54 0.01 48 1009.5
20260509212544 79 300 3.5 9.6 0.00 0.54 0.01 41 1009.6
20260509212046 79 310 3.5 8.7 0.00 0.54 0.01 45 1009.7
20260509211546 79 296 1.7 8.7 0.00 0.54 0.01 48 1009.9
20260509211048 80 298 2.6 10.4 0.00 0.54 0.01 42 1009.9
20260509210643 80 289 3.5 10.4 0.00 0.54 0.01 43 1009.9
20260509210105 79 296 2.6 10.4 0.00 0.54 0.01 39 1010.0
20260509205600 79 297 2.6 12.2 0.00 0.54 0.01 44 1010.1
20260509205100 80 317 4.3 12.2 0.00 0.54 0.01 44 1010.2
20260509204602 79 306 6.1 10.4 0.00 0.54 0.01 41 1010.3
20260509204059 79 319 2.6 11.3 0.00 0.54 0.01 42 1010.3
20260509203558 79 336 3.5 11.3 0.00 0.54 0.01 49 1010.3
20260509203100 79 266 1.7 11.3 0.00 0.54 0.01 47 1010.3
20260509202558 79 290 2.6 10.4 0.00 0.54 0.01 44 1010.3
20260509202058 79 329 5.2 10.4 0.00 0.54 0.01 43 1010.5
20260509201558 79 306 2.6 8.7 0.00 0.54 0.01 47 1010.5
20260509201056 79 259 2.6 8.7 0.00 0.54 0.01 52 1010.5
20260509200502 79 304 2.6 11.3 0.00 0.54 0.01 43 1010.6
20260509200001 79 294 5.2 11.3 0.00 0.54 0.01 44 1010.6
20260509195601 79 293 3.5 11.3 0.00 0.54 0.01 46 1010.7
20260509195103 79 309 1.7 7.0 0.00 0.54 0.01 48 1010.7
20260509194559 79 304 2.6 9.6 0.00 0.54 0.01 47 1010.7
20260509194059 79 315 2.6 9.6 0.00 0.54 0.01 48 1010.7
20260509193559 78 299 1.7 9.6 0.00 0.54 0.01 45 1010.7
20260509193125 78 307 6.1 11.3 0.00 0.54 0.01 44 1010.7
20260509192557 79 272 4.3 11.3 0.00 0.54 0.01 50 1010.7
20260509192101 79 333 4.3 9.6 0.00 0.54 0.01 48 1010.6
20260509191613 78 279 1.7 10.4 0.00 0.54 0.01 49 1010.6
20260509191057 78 307 4.3 10.4 0.00 0.54 0.01 52 1010.5
20260509190655 78 310 3.5 10.4 0.00 0.54 0.01 52 1010.6
20260509190111 78 212 3.5 9.6 0.00 0.54 0.01 52 1010.5
20260509185556 78 300 5.2 9.6 0.00 0.54 0.01 48 1010.7
20260509185056 78 263 3.5 8.7 0.00 0.54 0.01 54 1010.7
20260509184554 78 295 3.5 9.6 0.00 0.54 0.01 53 1010.7
20260509184054 77 263 3.5 10.4 0.00 0.54 0.01 54 1010.7
20260509183554 77 281 4.3 10.4 0.00 0.54 0.01 52 1010.7
20260509183055 77 262 4.3 11.3 0.00 0.54 0.01 51 1010.7
20260509182552 77 283 2.6 11.3 0.00 0.54 0.01 54 1010.7
20260509182052 77 360 3.5 9.6 0.00 0.54 0.01 56 1010.9
20260509181551 77 318 3.5 9.6 0.00 0.54 0.01 57 1010.9
20260509181051 76 338 4.3 9.6 0.00 0.54 0.01 55 1010.9
20260509180651 76 298 3.5 9.6 0.00 0.54 0.01 58 1010.9
20260509180054 76 295 4.3 13.9 0.00 0.54 0.01 56 1011.1
20260509175554 76 49 5.2 13.9 0.00 0.54 0.01 56 1011.1
20260509175053 76 294 4.3 9.6 0.00 0.54 0.01 56 1011.1
20260509174552 76 285 3.5 12.2 0.00 0.54 0.01 55 1011.1
20260509174051 76 307 6.1 12.2 0.00 0.54 0.01 55 1011.3
20260509173549 75 275 5.2 10.4 0.00 0.54 0.01 54 1011.2
20260509173057 75 273 4.3 12.2 0.00 0.54 0.01 56 1011.2
20260509172550 75 280 4.3 12.2 0.00 0.54 0.01 58 1011.3
20260509172047 75 315 3.5 8.7 0.00 0.54 0.01 58 1011.3
20260509171559 74 317 1.7 11.3 0.00 0.54 0.01 63 1011.3
20260509171045 74 322 3.5 14.8 0.00 0.54 0.01 58 1011.4
20260509170645 74 288 6.1 14.8 0.00 0.54 0.01 58 1011.5
20260509170055 74 311 4.3 11.3 0.00 0.54 0.01 60 1011.4
20260509165554 74 337 3.5 7.8 0.00 0.54 0.01 61 1011.4
20260509165052 74 290 2.6 7.0 0.00 0.54 0.01 67 1011.5
20260509164553 73 335 1.7 8.7 0.00 0.54 0.01 64 1011.5
20260509164053 73 292 3.5 8.7 0.00 0.54 0.01 63 1011.7
20260509163551 73 283 3.5 8.7 0.00 0.54 0.01 66 1011.7
20260509163055 73 301 2.6 9.6 0.00 0.54 0.01 68 1011.7
20260509162551 72 324 3.5 7.8 0.00 0.54 0.01 64 1011.6
20260509162046 72 271 0.9 9.6 0.00 0.54 0.01 69 1011.7
20260509161544 72 313 1.7 9.6 0.00 0.54 0.01 66 1011.8
20260509161042 71 263 2.6 7.8 0.00 0.54 0.01 67 1011.8
20260509160514 71 5 2.6 7.8 0.00 0.54 0.01 65 1011.8
20260509160017 71 296 2.6 7.8 0.00 0.54 0.01 68 1011.8
20260509155512 71 315 0.9 7.8 0.00 0.54 0.01 70 1011.7
20260509155016 70 296 4.3 7.8 0.00 0.54 0.01 68 1011.6
20260509154507 70 249 3.5 7.8 0.00 0.54 0.01 71 1011.6
20260509154006 70 265 2.6 7.8 0.00 0.54 0.01 70 1011.7
20260509153504 69 286 2.6 7.0 0.00 0.54 0.01 76 1011.6
20260509153103 69 321 1.7 7.8 0.00 0.54 0.01 73 1011.7
20260509152501 69 267 4.3 8.7 0.00 0.54 0.01 73 1011.6
20260509152101 68 273 1.7 8.7 0.00 0.54 0.01 75 1011.7
20260509151607 68 265 3.5 9.6 0.00 0.54 0.01 75 1011.7
20260509151100 68 34 4.3 9.6 0.00 0.54 0.01 75 1011.6
20260509150511 67 9 3.5 8.7 0.00 0.54 0.01 77 1011.5
20260509150010 67 299 2.6 5.2 0.01 0.54 0.01 80 1011.5
20260509145509 67 240 1.7 7.0 0.01 0.54 0.01 81 1011.5
20260509145008 66 298 3.5 7.0 0.01 0.54 0.01 82 1011.5
20260509144506 66 309 1.7 7.8 0.01 0.54 0.01 83 1011.5
20260509144004 65 277 4.3 7.8 0.01 0.54 0.01 83 1011.4
20260509143501 65 249 0.9 7.0 0.01 0.54 0.01 86 1011.6
20260509143100 64 295 2.6 7.0 0.01 0.54 0.01 88 1011.6
20260509142558 64 291 1.7 4.3 0.01 0.54 0.01 91 1011.4
20260509142057 63 236 0.9 7.0 0.01 0.54 0.01 95 1011.5
20260509141556 62 295 2.6 7.0 0.01 0.54 0.01 96 1011.5
20260509141054 61 326 0.9 3.5 0.01 0.54 0.01 97 1011.3
20260509140501 60 335 1.7 3.5 0.01 0.54 0.01 98 1011.2
20260509140107 59 257 0.9 7.0 0.00 0.53 0.00 98 1011.3
20260509135601 58 339 2.6 7.0 0.00 0.53 0.00 98 1011.3
20260509135057 58 126 0.0 2.6 0.00 0.53 0.00 98 1011.2
20260509134607 57 157 0.0 1.7 0.00 0.53 0.00 98 1011.2
20260509134053 57 157 0.0 1.7 0.00 0.53 0.00 98 1011.1
20260509133552 56 88 0.0 1.7 0.00 0.53 0.00 98 1011.1
20260509133052 55 5 0.0 1.7 0.00 0.53 0.00 98 1011.1
20260509132551 54 355 0.0 1.7 0.00 0.53 0.00 98 1011.1
20260509132052 53 360 0.0 0.9 0.00 0.53 0.00 98 1011.0
20260509131605 53 360 0.0 1.7 0.00 0.53 0.00 98 1010.9
20260509131048 53 5 0.0 1.7 0.00 0.53 0.00 98 1011.0
20260509130648 52 15 0.0 0.9 0.00 0.53 0.00 97 1010.9
20260509125551 51 360 0.0 0.9 0.00 0.53 0.00 97 1010.8
20260509125055 51 347 0.0 0.9 0.00 0.53 0.00 97 1010.9
20260509124550 51 355 0.0 0.9 0.00 0.53 0.00 97 1010.9
20260509124048 50 343 0.0 0.9 0.00 0.53 0.00 97 1010.8
20260509123548 50 327 0.0 0.9 0.00 0.53 0.00 97 1010.8
20260509123052 50 327 0.0 0.9 0.00 0.53 0.00 97 1010.8
20260509122546 50 325 0.0 0.9 0.00 0.53 0.00 97 1010.8
20260509122045 50 325 0.0 0.9 0.00 0.53 0.00 97 1010.7
20260509121549 50 325 0.0 0.9 0.00 0.53 0.00 97 1010.7
20260509121048 50 325 0.0 0.9 0.00 0.53 0.00 97 1010.6
20260509120645 50 325 0.0 0.9 0.00 0.53 0.00 97 1010.6
20260509120058 50 347 0.0 1.7 0.00 0.53 0.00 97 1010.6
20260509115552 50 178 0.0 0.9 0.00 0.53 0.00 97 1010.5
20260509115051 49 178 0.0 0.9 0.00 0.53 0.00 97 1010.5
20260509114605 49 178 0.0 0.9 0.00 0.53 0.00 97 1010.5
20260509114049 49 178 0.0 0.9 0.00 0.53 0.00 97 1010.5
20260509113549 49 178 0.0 0.0 0.00 0.53 0.00 97 1010.4
20260509113053 49 178 0.0 0.0 0.00 0.53 0.00 97 1010.4
20260509112546 49 178 0.0 0.0 0.00 0.53 0.00 97 1010.4
20260509112045 49 178 0.0 0.0 0.00 0.53 0.00 97 1010.2
20260509111546 49 178 0.0 0.0 0.00 0.53 0.00 97 1010.1
20260509111047 49 178 0.0 0.0 0.00 0.53 0.00 97 1010.1
20260509110514 49 178 0.0 0.9 0.00 0.53 0.00 97 1010.1
20260509110001 49 178 0.0 0.9 0.00 0.53 0.00 97 1009.7
20260509105501 49 178 0.0 0.0 0.00 0.53 0.00 97 1009.6
20260509105003 49 178 0.0 0.0 0.00 0.53 0.00 97 1009.7
20260509104610 49 178 0.0 0.0 0.00 0.53 0.00 97 1009.7
20260509104059 50 178 0.0 0.0 0.00 0.53 0.00 97 1009.7
20260509103557 50 178 0.0 0.0 0.00 0.53 0.00 97 1009.7
20260509103056 50 178 0.0 0.0 0.00 0.53 0.00 97 1009.7
20260509102556 50 178 0.0 0.0 0.00 0.53 0.00 97 1009.7
20260509102055 51 178 0.0 0.0 0.00 0.53 0.00 97 1009.7
20260509101555 51 178 0.0 0.0 0.00 0.53 0.00 97 1009.7
20260509101057 51 178 0.0 0.0 0.00 0.53 0.00 97 1009.9
20260509100653 51 178 0.0 0.9 0.00 0.53 0.00 97 1009.9
20260509100056 51 178 0.0 0.9 0.00 0.53 0.00 97 1009.8
20260509095557 52 178 0.0 0.9 0.00 0.53 0.00 97 1009.8
20260509095055 52 178 0.0 0.9 0.00 0.53 0.00 97 1010.1
20260509094607 52 178 0.0 0.9 0.00 0.53 0.00 97 1010.1
20260509094054 52 178 0.0 0.9 0.00 0.53 0.00 97 1010.0
20260509093552 52 178 0.0 0.0 0.00 0.53 0.00 97 1009.9
20260509093052 52 178 0.0 0.9 0.00 0.53 0.00 97 1009.9
20260509092552 52 178 0.0 2.6 0.00 0.53 0.00 97 1010.0
20260509092050 53 177 0.0 1.7 0.00 0.53 0.00 97 1010.0
20260509091552 53 214 0.0 0.9 0.00 0.53 0.00 97 1010.0
20260509091050 53 305 0.0 0.9 0.00 0.53 0.00 97 1009.9
20260509090648 53 305 0.0 0.9 0.00 0.53 0.00 97 1009.7
20260509090101 53 305 0.0 0.9 0.00 0.53 0.00 97 1009.4
20260509085551 53 305 0.0 0.9 0.00 0.53 0.00 97 1009.3
20260509085050 53 305 0.0 0.9 0.00 0.53 0.00 97 1009.5
20260509084557 53 305 0.0 1.7 0.00 0.53 0.00 97 1009.6
20260509084048 54 305 0.0 1.7 0.00 0.53 0.00 97 1009.7
20260509083546 54 292 0.0 2.6 0.00 0.53 0.00 97 1009.6
20260509083049 54 289 0.0 2.6 0.00 0.53 0.00 97 1009.5
20260509082546 54 179 0.0 3.5 0.00 0.53 0.00 97 1009.6
20260509082046 54 179 0.9 3.5 0.00 0.53 0.00 97 1009.6
20260509081546 55 191 0.9 3.5 0.00 0.53 0.00 97 1009.6
20260509081046 55 200 0.9 2.6 0.00 0.53 0.00 97 1009.6
20260509080645 55 236 0.0 1.7 0.00 0.53 0.00 97 1009.5
20260509080042 55 213 0.0 1.7 0.00 0.53 0.00 97 1009.1
20260509075542 55 178 0.0 1.7 0.00 0.53 0.00 97 1009.2
20260509075042 55 248 0.0 2.6 0.00 0.53 0.00 97 1009.3
20260509074549 55 203 0.0 2.6 0.00 0.53 0.00 97 1009.3
20260509074042 55 196 0.0 2.6 0.00 0.53 0.00 97 1009.2
20260509073541 55 186 0.9 2.6 0.00 0.53 0.00 97 1009.2
20260509073040 55 217 0.0 2.6 0.00 0.53 0.00 97 1009.2
20260509072544 55 196 0.0 2.6 0.00 0.53 0.00 97 1009.3
20260509072040 55 306 0.9 2.6 0.00 0.53 0.00 97 1009.4
20260509071540 56 235 0.0 1.7 0.00 0.53 0.00 97 1009.3
20260509071040 56 239 0.0 3.5 0.00 0.53 0.00 97 1009.4
20260509070640 56 192 0.0 5.2 0.00 0.53 0.00 97 1009.4
20260509070105 56 236 1.7 5.2 0.00 0.53 0.00 97 1009.7
20260509065555 56 209 0.9 2.6 0.00 0.53 0.00 97 1009.6
20260509065055 56 191 0.9 2.6 0.00 0.53 0.00 97 1009.5
20260509064555 56 277 0.9 2.6 0.00 0.53 0.00 97 1009.7
20260509064054 56 188 0.0 2.6 0.00 0.53 0.00 97 1009.7
20260509063553 56 188 0.9 2.6 0.00 0.53 0.00 97 1009.7
20260509063054 56 198 0.9 2.6 0.00 0.53 0.00 97 1009.6
20260509062553 56 163 0.0 0.0 0.00 0.53 0.00 97 1009.6
20260509062054 55 163 0.0 0.0 0.00 0.53 0.00 97 1009.6
20260509061556 55 163 0.0 0.0 0.00 0.53 0.00 97 1009.6
20260509061052 55 163 0.0 0.0 0.00 0.53 0.00 96 1009.6
20260509060653 55 163 0.0 0.0 0.00 0.53 0.00 96 1009.7
20260509060059 55 163 0.0 0.0 0.00 0.53 0.00 96 1009.7
20260509055555 54 163 0.0 0.0 0.00 0.53 0.00 96 1009.7
20260509055055 54 163 0.0 0.0 0.00 0.53 0.00 96 1009.6
20260509054613 54 163 0.0 0.0 0.00 0.53 0.00 96 1009.6
20260509054053 55 163 0.0 0.0 0.00 0.53 0.00 96 1009.5
20260509053552 55 163 0.0 0.0 0.00 0.53 0.00 96 1009.5
20260509053141 55 163 0.0 0.0 0.00 0.53 0.00 96 1009.6
20260509052555 55 143 0.0 0.0 0.01 0.53 0.00 96 1009.5
20260509052053 55 143 0.0 0.0 0.01 0.53 0.00 96 1009.3
20260509051553 56 143 0.0 0.9 0.01 0.53 0.00 96 1009.3
20260509051048 56 143 0.0 0.9 0.03 0.53 0.00 96 1009.2
20260509050649 56 143 0.0 0.9 0.05 0.53 0.00 96 1009.2